Regional Weather Roundup
Issued by NWS

Home | Current Version | Previous Version | Text Only | Print | Product List | Glossary Off
Versions: 1 2 3 4 5 6 7 8 9 10 11 12 13 14 15 16 17 18 19 20 21 22 23 24 25 26 27 28 29 30 31 32 33 34 35 36 37 38 39 40 41 42 43 44 45 46 47 48 49 50

000
ASUS43 KMKX 252300
RWRWI

WISCONSIN REGIONAL WEATHER ROUNDUP
NATIONAL WEATHER SERVICE MILWAUKEE/SULLIVAN WI
500 PM CST THU DEC 25 2014

NOTE: "FAIR" INDICATES FEW OR NO CLOUDS BELOW 12,000 FEET WITH NO
SIGNIFICANT WEATHER AND/OR OBSTRUCTIONS TO VISIBILITY.

WIZ001-002-006>008-014>016-023>028-260000-
NORTHWEST WISCONSIN

CITY           SKY/WX    TMP DP  RH WIND       PRES   REMARKS
SUPERIOR ARPT  CLOUDY    33  28  82 W5        29.81R WCI  29
ASHLAND        CLOUDY    33  28  81 W6        29.83R WCI  28
HAYWARD        CLOUDY    32  28  85 S5        29.80R WCI  27
SIREN          CLOUDY    32  30  92 CALM      29.80R
CUMBERLAND     LGT SNOW  30  30 100 CALM      29.79S
RICE LAKE      LGT SNOW  32  31  94 SE3       29.81S
CHETEK         LGT SNOW  32  30  94 CALM      29.80S
LADYSMITH      CLOUDY    32  31  94 S7        29.83R FOG     WCI  26
EAU CLAIRE     NOT AVBL
MENOMONIE      CLOUDY    33  30  89 E3        29.81R
NEW RICHMOND   LGT SNOW  32  32 100 CALM      29.79S
OSCEOLA        LGT SNOW  33  33 100 CALM      29.82S
$$

WIZ003>005-009-010-017-018-260000-
NORTH CENTRAL WISCONSIN

CITY           SKY/WX    TMP DP  RH WIND       PRES   REMARKS
MANITOWISH WTR CLOUDY    30  28  95 SW6       29.79R WCI  24
ARBOR VITAE    CLOUDY    32  29  88 SW5       29.79R WCI  27
WOODRUFF       CLOUDY    32  29  88 SW5       29.79R WCI  27
RHINELANDER    LGT SNOW  29  27  92 SW9       29.81R FOG     WCI  20
EAGLE RIVER    CLOUDY    31  29  94 SW8       29.79R WCI  23
LAND O LAKES   CLOUDY    31  29  91 SW5       29.80R WCI  27
PHILLIPS       FLURRIES  30  28  92 CALM      29.79R
TOMAHAWK       LGT SNOW  30  28  92 CALM      29.81R
MEDFORD        CLOUDY    31  28  88 S3        29.81R
MERRILL        CLOUDY    32  30  92 CALM      29.82R
$$

WIZ029-030-035-036-043>047-260000-
CENTRAL WISCONSIN

CITY           SKY/WX    TMP DP  RH WIND       PRES   REMARKS
WAUSAU         CLOUDY    32  27  81 S5        29.82S WCI  27
MOSINEE        MOCLDY    32  30  93 S5        29.84S WCI  27
MARSHFIELD     MOCLDY    32  27  81 SE5       29.81F WCI  27
STEVENS POINT  MOCLDY    32  27  84 CALM      29.85S
WAUPACA        CLOUDY    36  30  80 CALM      29.87R
WAUTOMA        NOT AVBL
WISC RAPIDS    MOCLDY    32  27  81 SE5       29.85S WCI  27
CAMP DOUGLAS   NOT AVBL
$$

WIZ011>013-019>022-031-037>040-048>050-260000-
NORTHEAST WISCONSIN

CITY           SKY/WX    TMP DP  RH WIND       PRES   REMARKS
ANTIGO         CLOUDY    30  28  93 SW6       29.83R WCI  24
SHAWANO        CLOUDY    36  30  78 CALM      29.87R
OCONTO         CLOUDY    35  31  85 SW7       29.88R WCI  29
STURGEON BAY   CLOUDY    34  28  80 SW12      29.90R WCI  25
GREEN BAY      CLOUDY    35  30  82 S5        29.89R WCI  31
MANITOWOC      NOT AVBL
APPLETON       MOCLDY    34  30  86 VRB5      29.88R WCI  30
CLINTONVILLE   CLOUDY    34  30  86 S3        29.87R
OSHKOSH        CLOUDY    35  30  82 CALM      29.88R
$$

WIZ032>034-041-042-053>061-260000-
SOUTHWEST WISCONSIN

CITY           SKY/WX    TMP DP  RH WIND       PRES   REMARKS
LA CROSSE      CLEAR     37  29  72 E5        29.81S WCI  33
SPARTA         CLEAR     35  29  79 E3        29.83S
VIROQUA        CLEAR     36  32  85 SE6       29.81R WCI  31
BOSCOBEL       MOCLDY    42  30  62 VRB3      29.84S
PRAIRIE DU CHI MOCLDY    42  30  63 SE5       29.82R
PLATTEVILLE    MOCLDY    39  32  77 CALM      29.85S
$$

WIZ056-057-062-063-064-067-068-260000-
SOUTH CENTRAL WISCONSIN

CITY           SKY/WX    TMP DP  RH WIND       PRES   REMARKS
REEDSBURG      PTCLDY    37  31  80 SE3       29.84S
BARABOO/DELLS  PTCLDY    35  30  82 S6        29.84S WCI  30
LONE ROCK      NOT AVBL
MINERAL POINT  MOCLDY    41  32  70 SE8       29.84S
MADISON        CLOUDY    40  31  70 S8        29.87R WCI  34
MIDDLETON      CLOUDY    41  32  69 S8        29.86S
WATERTOWN      CLOUDY    38  32  79 S7        29.89S WCI  32
MONROE         MOCLDY    37  34  87 S12       29.87R WCI  30
JANESVILLE     CLEAR     41  32  70 S10       29.89F
$$

WIZ051-052-058>065-066-070>072-260000-
SOUTHEAST WISCONSIN

CITY           SKY/WX    TMP DP  RH WIND       PRES   REMARKS
MILWAUKEE      MOCLDY    39  30  70 S7        29.93F WCI  34
WAUKESHA       MOCLDY    37  30  75 S7        29.93S WCI  32
MILWAUKEE/TIMM NOT AVBL
RACINE         MOCLDY    40  30  67 S8        29.95S WCI  34
BURLINGTON     CLOUDY    37  32  82 S9        29.93S WCI  30
KENOSHA        CLOUDY    38  31  76 S6        29.94S WCI  33
FOND DU LAC    CLOUDY    34  29  82 S6        29.88S WCI  29
SHEBOYGAN      MOCLDY    36  29  75 S9        29.91R WCI  29
WEST BEND      MOCLDY    37  30  75 S9        29.90R WCI  31
JUNEAU         CLOUDY    37  31  81 S12       29.89S WCI  29
$$

LSZ147-162-260000-
LAKE SUPERIOR

STATION/POSITION TIME  TEMP    WIND        PRES    WAVE
                       AIR SEA DIR/SP/G            HT/PER
                 (UTC) (F)     (DEG/KT/KT) (MB)    (FT/S)
DEVILS ISLAND    2200   35     240/ 14/ 17 1009.5R
PORT WING        2240   34     220/  5/  7 1010.2R
SAXON HARBOR     2200   34     220/  1/  4 1009.5
$$

LMZ867-665-643>646-260000-
LAKE MICHIGAN

STATION/POSITION TIME  TEMP    WIND        PRES    WAVE
                       AIR SEA DIR/SP/G            HT/PER
                 (UTC) (F)     (DEG/KT/KT) (MB)    (FT/S)
CHAMBERS ISLAND  2200   35     190/  7/ 15 1011.2R
NORTHPORT PIER   2201   35     230/  4/ 15 1011.2R
SISTER BAY       2213          240/ 17/ 20   N/A
ALGOMA LAKESHORE 2215          250/ 14/ 16   N/A
KEWAUNEE LAKESHO 2200   36     230/  9/ 12 1011.3R
SHEBOYGAN LAKESH 2200   40 37  200/ 11/ 12 1013.2R
PORT WASHINGTON  2200   40     210/  7/ 11 1013.5
MILWAUKEE LAKESH 2200   40     210/ 13/ 17   N/A
KENOSHA   LAKESH 2200   42     200/  8/ 14 1014.2R
$$

TC  - TEMPERATURE IN CELSIUS
VSB - VISIBILITY IN STATUTE MILES
WCI - WIND CHILL INDEX
HX  - HEAT INDEX




USA.gov is the U.S. government's official web portal to all federal, state and local government web resources and services.